Regional Weather Roundup
Issued by NWS

Home | Current Version | Previous Version | Graphics & Text | Print | Product List | Glossary Off
Versions: 1 2 3 4 5 6 7 8 9 10 11 12 13 14 15 16 17 18 19 20 21 22 23 24 25 26 27 28 29 30 31 32 33 34 35 36 37 38 39 40 41 42 43 44 45 46 47 48 49 50

000
ASUS43 KMKX 230421
RWRWI

WISCONSIN REGIONAL WEATHER ROUNDUP
NATIONAL WEATHER SERVICE MILWAUKEE/SULLIVAN WI
1100 PM CDT MON MAY 22 2017

NOTE: "FAIR" INDICATES FEW OR NO CLOUDS BELOW 12,000 FEET WITH NO
SIGNIFICANT WEATHER AND/OR OBSTRUCTIONS TO VISIBILITY.

WIZ001-002-006>008-014>016-023>028-230500-
NORTHWEST WISCONSIN

CITY           SKY/WX    TMP DP  RH WIND       PRES   REMARKS
SUPERIOR ARPT  NOT AVBL
ASHLAND        CLOUDY    49  45  86 SE3       29.83S
HAYWARD        MOCLDY    49  45  86 CALM      29.83S
SIREN          PTCLDY    44  43  95 CALM      29.84R
CUMBERLAND     CLOUDY    45  43  93 CALM      29.83F
RICE LAKE      CLOUDY    48  45  90 CALM      29.84F
CHETEK         CLOUDY    47  45  93 CALM      29.83S
LADYSMITH      PTCLDY    45  44  95 CALM      29.85S
EAU CLAIRE     CLOUDY    52  46  80 CALM      29.81F
MENOMONIE      CLOUDY    54  47  76 CALM      29.82F
NEW RICHMOND   CLOUDY    51  44  78 CALM      29.84S
OSCEOLA        CLOUDY    49  49 100 CALM      29.86S
$$

WIZ003>005-009-010-017-018-230500-
NORTH CENTRAL WISCONSIN

CITY           SKY/WX    TMP DP  RH WIND       PRES   REMARKS
MANITOWISH WTR CLOUDY    46  46 100 CALM      29.83F
ARBOR VITAE    MOCLDY    49  46  90 CALM      29.84S
WOODRUFF       MOCLDY    49  46  90 CALM      29.84S
RHINELANDER    CLEAR     44  41  89 CALM      29.85S
EAGLE RIVER    CLOUDY    46  45  96 CALM      29.84S
LAND O LAKES   CLOUDY    47  46  93 CALM      29.85F
PHILLIPS       MOCLDY    43  43 100 CALM      29.83S
TOMAHAWK       CLEAR     39  38  95 CALM      29.85S
MEDFORD        CLEAR     47  42  84 E3        29.82F
MERRILL        MOCLDY    45  44  95 CALM      29.84F
$$

WIZ029-030-035-036-043>047-230500-
CENTRAL WISCONSIN

CITY           SKY/WX    TMP DP  RH WIND       PRES   REMARKS
WAUSAU         CLEAR     50  42  74 N3        29.81F
MOSINEE        CLEAR     50  41  71 NE3       29.84S
MARSHFIELD     PTCLDY    53  43  68 NE5       29.82S
STEVENS POINT  CLEAR     47  45  94 CALM      29.84S
WAUPACA        PTCLDY    57  46  68 CALM      29.83F
WAUTOMA        PTCLDY    52  49  89 CALM      29.82F
WISC RAPIDS    PTCLDY    54  45  71 NE5       29.83S
CAMP DOUGLAS   LGT RAIN  55  54  94 NW10      29.81S
$$

WIZ011>013-019>022-031-037>040-048>050-230500-
NORTHEAST WISCONSIN

CITY           SKY/WX    TMP DP  RH WIND       PRES   REMARKS
ANTIGO         MOCLDY    45  43  92 NE5       29.84F
SHAWANO        CLEAR     55  47  75 CALM      29.85R
OCONTO         CLEAR     46  44  91 CALM      29.85R
STURGEON BAY   CLEAR     49  46  90 E6        29.86S
GREEN BAY      PTCLDY    53  49  86 E5        29.85S
MANITOWOC      CLOUDY    52  48  86 NE6       29.84F
APPLETON       MOCLDY    57  48  72 CALM      29.82S
CLINTONVILLE   CLEAR     50  45  81 CALM      29.84S
OSHKOSH        CLOUDY    55  50  83 S8        29.82F
$$

WIZ032>034-041-042-053>061-230500-
SOUTHWEST WISCONSIN

CITY           SKY/WX    TMP DP  RH WIND       PRES   REMARKS
LA CROSSE      LGT RAIN  58  56  93 SW8       29.81R
SPARTA         RAIN      55  51  89 SW12G17   29.83R
VIROQUA        CLOUDY    55  53  94 SW7       29.82R
BOSCOBEL       CLOUDY    58  55  90 W5        29.82R THUNDER
PRAIRIE DU CHI HVY RAIN  56  52  88 CALM      29.83R
PLATTEVILLE    MOCLDY    58  57  99 SW8       29.85S
$$

WIZ056-057-062-063-064-067-068-230500-
SOUTH CENTRAL WISCONSIN

CITY           SKY/WX    TMP DP  RH WIND       PRES   REMARKS
REEDSBURG      CLOUDY    58  57  96 S8        29.81S
BARABOO/DELLS  CLOUDY    58  54  86 S10       29.82S
LONE ROCK      CLOUDY    57  53  86 E9        29.82S
MINERAL POINT  LGT RAIN  55  55 100 S8        29.83F
MADISON        LGT RAIN  59  56  89 S7        29.82F
MIDDLETON      CLOUDY    58  54  86 SW12G18   29.85R
WATERTOWN      MOCLDY    57  57  99 S5        29.84S
MONROE         MOCLDY    55  54  94 S10       29.85F
JANESVILLE     MOCLDY    59  55  88 S9        29.85F
$$

WIZ051-052-058>065-066-070>072-230500-
SOUTHEAST WISCONSIN

CITY           SKY/WX    TMP DP  RH WIND       PRES   REMARKS
MILWAUKEE      CLOUDY    63  53  70 SW9       29.86F
WAUKESHA       CLOUDY    55  52  88 S8        29.87S
MILWAUKEE/TIMM   N/A     59  52  77 S6        29.86S
RACINE         CLOUDY    62  53  72 SW13      29.87F
KENOSHA        MOCLDY    61  53  75 SW14      29.87F
FOND DU LAC    PTCLDY    55  49  80 S3        29.83F
SHEBOYGAN      CLOUDY    52  50  93 S3        29.83F
WEST BEND      PTCLDY    55  54  94 S5        29.84S
JUNEAU         CLOUDY    56  54  91 SE6       29.85S
$$

LSZ147-162-230500-
LAKE SUPERIOR

STATION/POSITION TIME  TEMP    WIND        PRES    WAVE
                       AIR SEA DIR/SP/G            HT/PER
                 (UTC) (F)     (DEG/KT/KT) (MB)    (FT/S)
W MID LAKE BUOY  0350   40 37  230/  4/  6 1010.5F   1/ 4
DEVILS ISLAND    0400   48     220/  9/  9 1010.3R
PORT WING        0340   48     130/  2/  2 1010.5R
SAXON HARBOR     0340   51     180/  3/  6 1010.2S
$$

LMZ867-665-643>646-230500-
LAKE MICHIGAN

STATION/POSITION TIME  TEMP    WIND        PRES    WAVE
                       AIR SEA DIR/SP/G            HT/PER
                 (UTC) (F)     (DEG/KT/KT) (MB)    (FT/S)
CHAMBERS ISLAND  0340   45        CALM     1010.5S
N MID LAKE BUOY  0350   41 39  180/  6/  8 1012.3R   3/ 6
NORTHPORT PIER   0340   47     200/  1/  3 1011.2S
KEWAUNEE LAKESHO 0354           30/  4/  6 1010.8S
SHEBOYGAN LAKESH 0400   55     190/  4/  5 1010.1F
PORT WASHINGTON  0330   52     260/  2/  5 1011.5F
ATWATER BUOY     0309   49     170/  6/  8 1011.1F
MILWAUKEE LAKESH 0400   62     230/ 12/ 13   N/A
S MID LAKE BUOY  0350   51 45  230/ 14/ 14 1012.1F   1/ 3
KENOSHA   LAKESH 0400   62     230/  8/ 16 1011.2
$$

TC  - TEMPERATURE IN CELSIUS
VSB - VISIBILITY IN STATUTE MILES
WCI - WIND CHILL INDEX
HX  - HEAT INDEX





USA.gov is the U.S. government's official web portal to all federal, state and local government web resources and services.